| time (UTC) | temp F | wind direction | speed MPH | gust MPH | rain 1hr in | rain 24hr in | rain mn in | humidity % | barometer mb |
| 20260509211736 | 59 | 18 | 0.0 | 0.0 | 0.00 | 0.00 | 0.00 | 63 | 1016.4 |
| 20260509211233 | 59 | 16 | 0.0 | 0.0 | 0.00 | 0.00 | 0.00 | 62 | 1016.3 |
| 20260509210727 | 60 | 15 | 0.0 | 0.0 | 0.00 | 0.00 | 0.00 | 62 | 1016.4 |
| 20260509210228 | 60 | 15 | 0.0 | 0.0 | 0.00 | 0.00 | 0.00 | 61 | 1016.3 |
| 20260509205951 | 60 | 8 | 0.0 | 0.0 | 0.00 | 0.00 | 0.00 | 61 | 1016.1 |
| 20260509205222 | 60 | 351 | 0.0 | 0.0 | 0.00 | 0.00 | 0.00 | 60 | 1015.9 |
| 20260509204716 | 60 | 351 | 0.0 | 0.0 | 0.00 | 0.00 | 0.00 | 60 | 1015.9 |
| 20260509204212 | 61 | 349 | 0.0 | 0.0 | 0.00 | 0.00 | 0.00 | 59 | 1016.0 |
| 20260509203655 | 61 | 349 | 0.0 | 0.0 | 0.00 | 0.00 | 0.00 | 59 | 1016.1 |
| 20260509203151 | 61 | 350 | 0.0 | 0.0 | 0.00 | 0.00 | 0.00 | 59 | 1016.0 |
| 20260509202634 | 62 | 350 | 0.0 | 0.0 | 0.00 | 0.00 | 0.00 | 58 | 1016.0 |
| 20260509202131 | 62 | 350 | 0.0 | 0.0 | 0.00 | 0.00 | 0.00 | 58 | 1015.9 |
| 20260509201622 | 62 | 7 | 0.0 | 0.0 | 0.00 | 0.00 | 0.00 | 57 | 1015.9 |
| 20260509201106 | 62 | 323 | 0.0 | 0.0 | 0.00 | 0.00 | 0.00 | 56 | 1015.9 |
| 20260509200554 | 62 | 333 | 0.0 | 0.0 | 0.00 | 0.00 | 0.00 | 56 | 1016.0 |
| 20260509200042 | 62 | 325 | 0.0 | 0.0 | 0.00 | 0.00 | 0.00 | 56 | 1016.0 |
| 20260509195023 | 62 | 330 | 0.0 | 0.0 | 0.00 | 0.00 | 0.00 | 56 | 1015.9 |
| 20260509194512 | 62 | 345 | 0.0 | 0.0 | 0.00 | 0.00 | 0.00 | 55 | 1016.1 |
| 20260509194235 | 62 | 351 | 0.0 | 0.0 | 0.00 | 0.00 | 0.00 | 56 | 1016.0 |
| 20260509193452 | 62 | 2 | 0.0 | 0.0 | 0.00 | 0.00 | 0.00 | 56 | 1015.9 |
| 20260509192948 | 62 | 357 | 0.0 | 0.0 | 0.00 | 0.00 | 0.00 | 57 | 1015.9 |
| 20260509192436 | 62 | 325 | 0.0 | 0.0 | 0.00 | 0.00 | 0.00 | 56 | 1015.9 |
| 20260509191925 | 62 | 315 | 0.0 | 0.0 | 0.00 | 0.00 | 0.00 | 56 | 1015.8 |
| 20260509191413 | 62 | 356 | 0.0 | 0.0 | 0.00 | 0.00 | 0.00 | 56 | 1015.8 |
| 20260509190857 | 62 | 315 | 0.0 | 0.0 | 0.00 | 0.00 | 0.00 | 55 | 1015.8 |
| 20260509190343 | 62 | 309 | 0.0 | 0.0 | 0.00 | 0.00 | 0.00 | 55 | 1015.7 |
| 20260509185833 | 62 | 347 | 0.0 | 0.0 | 0.00 | 0.00 | 0.00 | 55 | 1015.8 |
| 20260509185322 | 62 | 331 | 0.0 | 0.0 | 0.00 | 0.00 | 0.00 | 55 | 1015.9 |
| 20260509185034 | 62 | 335 | 0.0 | 0.0 | 0.00 | 0.00 | 0.00 | 55 | 1015.9 |
| 20260509184514 | 62 | 304 | 0.0 | 0.0 | 0.00 | 0.00 | 0.00 | 54 | 1015.9 |
| 20260509183733 | 63 | 324 | 0.0 | 0.0 | 0.00 | 0.00 | 0.00 | 53 | 1016.1 |
| 20260509183212 | 63 | 323 | 0.0 | 0.0 | 0.00 | 0.00 | 0.00 | 53 | 1015.9 |
| 20260509182658 | 62 | 326 | 0.0 | 0.0 | 0.00 | 0.00 | 0.00 | 54 | 1015.7 |
| 20260509181655 | 62 | 30 | 0.0 | 0.0 | 0.00 | 0.00 | 0.00 | 54 | 1015.6 |
| 20260509181155 | 62 | 239 | 0.0 | 0.0 | 0.00 | 0.00 | 0.00 | 54 | 1015.6 |
| 20260509180649 | 62 | 305 | 0.0 | 0.0 | 0.00 | 0.00 | 0.00 | 53 | 1015.8 |
| 20260509180149 | 62 | 308 | 0.0 | 0.0 | 0.00 | 0.00 | 0.00 | 54 | 1015.8 |
| 20260509175554 | 62 | 342 | 0.0 | 0.0 | 0.00 | 0.00 | 0.00 | 53 | 1015.6 |
| 20260509175053 | 62 | 314 | 0.0 | 0.0 | 0.00 | 0.00 | 0.00 | 53 | 1015.7 |
| 20260509174552 | 62 | 315 | 0.0 | 0.0 | 0.00 | 0.00 | 0.00 | 53 | 1015.6 |
| 20260509174050 | 62 | 316 | 0.0 | 0.0 | 0.00 | 0.00 | 0.00 | 54 | 1015.6 |
| 20260509173813 | 62 | 317 | 0.0 | 0.0 | 0.00 | 0.00 | 0.00 | 54 | 1015.7 |
| 20260509173031 | 62 | 346 | 0.0 | 0.0 | 0.00 | 0.00 | 0.00 | 53 | 1015.8 |
| 20260509172518 | 62 | 291 | 0.0 | 0.0 | 0.00 | 0.00 | 0.00 | 54 | 1015.9 |
| 20260509172012 | 62 | 279 | 0.0 | 0.0 | 0.00 | 0.00 | 0.00 | 55 | 1015.8 |
| 20260509171955 | 62 | 322 | 0.0 | 0.0 | 0.00 | 0.00 | 0.00 | 55 | 1015.7 |
| 20260509170942 | 62 | 302 | 0.0 | 0.0 | 0.00 | 0.00 | 0.00 | 55 | 1015.9 |
| 20260509170421 | 62 | 329 | 0.0 | 0.0 | 0.00 | 0.00 | 0.00 | 55 | 1016.1 |
| 20260509165914 | 62 | 252 | 0.0 | 0.0 | 0.00 | 0.00 | 0.00 | 55 | 1016.0 |
| 20260509165401 | 61 | 343 | 0.0 | 0.0 | 0.00 | 0.00 | 0.00 | 56 | 1015.9 |
| 20260509164845 | 61 | 287 | 0.0 | 0.0 | 0.00 | 0.00 | 0.00 | 55 | 1016.0 |
| 20260509164615 | 61 | 291 | 0.0 | 0.0 | 0.00 | 0.00 | 0.00 | 55 | 1016.1 |
| 20260509164115 | 61 | 324 | 0.0 | 0.0 | 0.00 | 0.00 | 0.00 | 55 | 1016.2 |
| 20260509163319 | 61 | 293 | 0.0 | 0.0 | 0.00 | 0.00 | 0.00 | 54 | 1016.2 |
| 20260509163049 | 61 | 318 | 0.0 | 0.0 | 0.00 | 0.00 | 0.00 | 55 | 1016.2 |
| 20260509162045 | 61 | 278 | 0.0 | 0.0 | 0.00 | 0.00 | 0.00 | 55 | 1016.1 |
| 20260509161312 | 61 | 335 | 0.0 | 0.0 | 0.00 | 0.00 | 0.00 | 55 | 1016.2 |
| 20260509160811 | 61 | 326 | 0.0 | 0.0 | 0.00 | 0.00 | 0.00 | 54 | 1016.2 |
| 20260509160310 | 61 | 337 | 0.0 | 0.0 | 0.00 | 0.00 | 0.00 | 54 | 1016.4 |
| 20260509160040 | 61 | 344 | 0.0 | 0.0 | 0.00 | 0.00 | 0.00 | 54 | 1016.4 |
| 20260509155310 | 61 | 297 | 0.0 | 0.0 | 0.00 | 0.00 | 0.00 | 53 | 1016.4 |
| 20260509154809 | 61 | 300 | 0.0 | 0.0 | 0.00 | 0.00 | 0.00 | 53 | 1016.5 |
| 20260509154308 | 61 | 324 | 0.0 | 0.0 | 0.00 | 0.00 | 0.00 | 53 | 1016.6 |
| 20260509153806 | 61 | 349 | 0.0 | 0.0 | 0.00 | 0.00 | 0.00 | 53 | 1016.6 |
| 20260509153306 | 61 | 320 | 0.0 | 0.0 | 0.00 | 0.00 | 0.00 | 51 | 1016.7 |
| 20260509152805 | 61 | 310 | 0.0 | 0.0 | 0.00 | 0.00 | 0.00 | 50 | 1016.7 |
| 20260509152306 | 61 | 313 | 0.0 | 0.0 | 0.00 | 0.00 | 0.00 | 49 | 1016.6 |
| 20260509151306 | 61 | 312 | 0.0 | 0.0 | 0.00 | 0.00 | 0.00 | 49 | 1016.9 |
| 20260509150804 | 61 | 328 | 0.0 | 0.0 | 0.00 | 0.00 | 0.00 | 49 | 1016.8 |
| 20260509150304 | 61 | 319 | 0.0 | 0.0 | 0.00 | 0.00 | 0.00 | 50 | 1016.7 |
| 20260509145804 | 61 | 327 | 0.0 | 0.0 | 0.00 | 0.00 | 0.00 | 50 | 1016.9 |
| 20260509145535 | 61 | 340 | 0.0 | 0.0 | 0.00 | 0.00 | 0.00 | 49 | 1016.9 |
| 20260509145413 | 61 | 12 | 0.0 | 0.0 | 0.00 | 0.00 | 0.00 | 50 | 1017.0 |
| 20260509144303 | 61 | 352 | 0.0 | 0.0 | 0.00 | 0.00 | 0.00 | 49 | 1017.1 |
| 20260509143803 | 60 | 337 | 0.0 | 0.0 | 0.00 | 0.00 | 0.00 | 51 | 1017.3 |
| 20260509143257 | 60 | 350 | 0.0 | 0.0 | 0.00 | 0.00 | 0.00 | 51 | 1017.5 |
| 20260509143029 | 60 | 342 | 0.0 | 0.0 | 0.00 | 0.00 | 0.00 | 51 | 1017.5 |
| 20260509142528 | 60 | 322 | 0.0 | 0.0 | 0.00 | 0.00 | 0.00 | 50 | 1017.7 |
| 20260509141747 | 60 | 359 | 0.0 | 0.0 | 0.00 | 0.00 | 0.00 | 52 | 1017.7 |
| 20260509141244 | 60 | 351 | 0.0 | 0.0 | 0.00 | 0.00 | 0.00 | 54 | 1017.8 |
| 20260509140739 | 60 | 10 | 0.0 | 0.0 | 0.00 | 0.00 | 0.00 | 55 | 1017.7 |
| 20260509140505 | 59 | 338 | 0.0 | 0.0 | 0.00 | 0.00 | 0.00 | 56 | 1017.6 |
| 20260509135950 | 59 | 320 | 0.0 | 0.0 | 0.00 | 0.00 | 0.00 | 56 | 1017.7 |
| 20260509135217 | 59 | 353 | 0.0 | 0.0 | 0.00 | 0.00 | 0.00 | 57 | 1017.5 |
| 20260509134719 | 59 | 348 | 0.0 | 0.0 | 0.00 | 0.00 | 0.00 | 55 | 1017.4 |
| 20260509134159 | 59 | 345 | 0.0 | 0.0 | 0.00 | 0.00 | 0.00 | 56 | 1017.5 |
| 20260509133701 | 59 | 32 | 0.0 | 0.0 | 0.00 | 0.00 | 0.00 | 57 | 1017.6 |
| 20260509133157 | 59 | 328 | 0.0 | 0.0 | 0.00 | 0.00 | 0.00 | 55 | 1017.4 |
| 20260509132658 | 59 | 10 | 0.0 | 0.0 | 0.00 | 0.00 | 0.00 | 55 | 1017.6 |
| 20260509132158 | 59 | 310 | 0.0 | 0.0 | 0.00 | 0.00 | 0.00 | 56 | 1017.7 |
| 20260509132151 | 59 | 355 | 0.0 | 0.0 | 0.00 | 0.00 | 0.00 | 57 | 1017.6 |
| 20260509131147 | 59 | 311 | 0.0 | 0.0 | 0.00 | 0.00 | 0.00 | 57 | 1017.8 |
| 20260509130639 | 59 | 289 | 0.0 | 0.0 | 0.00 | 0.00 | 0.00 | 56 | 1017.7 |
| 20260509130409 | 58 | 345 | 0.0 | 0.0 | 0.00 | 0.00 | 0.00 | 60 | 1017.7 |
| 20260509125638 | 58 | 323 | 0.0 | 0.0 | 0.00 | 0.00 | 0.00 | 64 | 1017.9 |
| 20260509125411 | 57 | 23 | 0.0 | 0.0 | 0.00 | 0.00 | 0.00 | 68 | 1017.8 |
| 20260509124633 | 57 | 59 | 0.0 | 0.0 | 0.00 | 0.00 | 0.00 | 72 | 1017.8 |
| 20260509124134 | 56 | 59 | 0.0 | 0.0 | 0.00 | 0.00 | 0.00 | 73 | 1017.6 |
| 20260509123627 | 56 | 62 | 0.0 | 0.0 | 0.00 | 0.00 | 0.00 | 74 | 1017.6 |
| 20260509123119 | 55 | 66 | 0.0 | 0.0 | 0.00 | 0.00 | 0.00 | 76 | 1017.4 |
| 20260509122615 | 55 | 65 | 0.0 | 0.0 | 0.00 | 0.00 | 0.00 | 76 | 1017.3 |
| 20260509122116 | 54 | 65 | 0.0 | 0.0 | 0.00 | 0.00 | 0.00 | 78 | 1017.3 |
| 20260509121611 | 54 | 65 | 0.0 | 0.0 | 0.00 | 0.00 | 0.00 | 79 | 1017.3 |
| 20260509121109 | 53 | 67 | 0.0 | 0.0 | 0.00 | 0.00 | 0.00 | 81 | 1017.3 |
| 20260509120606 | 53 | 68 | 0.0 | 0.0 | 0.00 | 0.00 | 0.00 | 82 | 1017.2 |
| 20260509120057 | 52 | 68 | 0.0 | 0.0 | 0.00 | 0.00 | 0.00 | 83 | 1017.3 |
| 20260509115547 | 51 | 67 | 0.0 | 0.0 | 0.00 | 0.00 | 0.00 | 84 | 1017.3 |
| 20260509115039 | 51 | 68 | 1.0 | 5.0 | 0.00 | 0.00 | 0.00 | 85 | 1017.4 |
| 20260509114521 | 51 | 65 | 3.0 | 6.0 | 0.00 | 0.00 | 0.00 | 85 | 1017.3 |
| 20260509114005 | 50 | 65 | 4.0 | 7.0 | 0.00 | 0.00 | 0.00 | 85 | 1017.1 |
| 20260509113454 | 50 | 62 | 4.0 | 7.0 | 0.00 | 0.00 | 0.00 | 86 | 1017.1 |
| 20260509112944 | 49 | 61 | 5.0 | 8.0 | 0.00 | 0.00 | 0.00 | 86 | 1016.9 |
| 20260509112438 | 49 | 51 | 5.0 | 8.0 | 0.00 | 0.00 | 0.00 | 86 | 1017.0 |
| 20260509111928 | 49 | 69 | 4.0 | 8.0 | 0.00 | 0.00 | 0.00 | 87 | 1017.0 |
| 20260509111412 | 49 | 84 | 4.0 | 8.0 | 0.00 | 0.00 | 0.00 | 87 | 1017.1 |
| 20260509110356 | 48 | 72 | 5.0 | 8.0 | 0.00 | 0.00 | 0.00 | 88 | 1017.1 |
| 20260509105845 | 48 | 70 | 5.0 | 8.0 | 0.00 | 0.00 | 0.00 | 89 | 1017.0 |
| 20260509105332 | 48 | 68 | 5.0 | 8.0 | 0.00 | 0.00 | 0.00 | 89 | 1016.8 |
| 20260509105059 | 47 | 57 | 5.0 | 8.0 | 0.00 | 0.00 | 0.00 | 89 | 1016.7 |
| 20260509104317 | 47 | 86 | 5.0 | 9.0 | 0.00 | 0.00 | 0.00 | 89 | 1016.6 |
| 20260509103805 | 47 | 97 | 5.0 | 9.0 | 0.00 | 0.00 | 0.00 | 89 | 1016.7 |
| 20260509103257 | 47 | 65 | 5.0 | 8.0 | 0.00 | 0.00 | 0.00 | 89 | 1016.6 |
| 20260509102747 | 47 | 71 | 5.0 | 8.0 | 0.00 | 0.00 | 0.00 | 89 | 1016.4 |
| 20260509102239 | 47 | 64 | 5.0 | 7.0 | 0.00 | 0.00 | 0.00 | 89 | 1016.2 |
| 20260509101739 | 47 | 60 | 5.0 | 8.0 | 0.00 | 0.00 | 0.00 | 89 | 1016.2 |
| 20260509101239 | 47 | 86 | 4.0 | 9.0 | 0.00 | 0.00 | 0.00 | 89 | 1016.1 |
| 20260509100739 | 47 | 67 | 4.0 | 9.0 | 0.00 | 0.00 | 0.00 | 89 | 1016.2 |
| 20260509100509 | 47 | 74 | 5.0 | 8.0 | 0.00 | 0.00 | 0.00 | 89 | 1016.0 |
| 20260509095720 | 47 | 78 | 5.0 | 8.0 | 0.00 | 0.00 | 0.00 | 89 | 1016.0 |
| 20260509095209 | 47 | 69 | 5.0 | 8.0 | 0.00 | 0.00 | 0.00 | 89 | 1015.9 |
| 20260509094658 | 47 | 69 | 5.0 | 8.0 | 0.00 | 0.00 | 0.00 | 89 | 1015.9 |
| 20260509094148 | 47 | 73 | 5.0 | 8.0 | 0.00 | 0.00 | 0.00 | 89 | 1015.7 |
| 20260509093638 | 47 | 65 | 5.0 | 8.0 | 0.00 | 0.00 | 0.00 | 89 | 1015.6 |
| 20260509093127 | 47 | 70 | 5.0 | 8.0 | 0.00 | 0.00 | 0.00 | 89 | 1015.6 |
| 20260509092617 | 47 | 90 | 5.0 | 8.0 | 0.00 | 0.00 | 0.00 | 89 | 1015.5 |
| 20260509092104 | 47 | 72 | 5.0 | 7.0 | 0.00 | 0.00 | 0.00 | 89 | 1015.4 |
| 20260509091834 | 47 | 73 | 5.0 | 8.0 | 0.00 | 0.00 | 0.00 | 89 | 1015.5 |
| 20260509091053 | 48 | 79 | 5.0 | 8.0 | 0.00 | 0.00 | 0.00 | 89 | 1015.2 |
| 20260509090542 | 48 | 89 | 5.0 | 9.0 | 0.00 | 0.00 | 0.00 | 89 | 1015.2 |
| 20260509090032 | 48 | 77 | 5.0 | 9.0 | 0.00 | 0.00 | 0.00 | 89 | 1015.2 |
| 20260509085522 | 48 | 77 | 5.0 | 8.0 | 0.00 | 0.00 | 0.00 | 89 | 1015.0 |
| 20260509085015 | 48 | 88 | 5.0 | 8.0 | 0.00 | 0.00 | 0.00 | 89 | 1014.9 |
| 20260509084746 | 48 | 95 | 5.0 | 8.0 | 0.00 | 0.00 | 0.00 | 89 | 1014.9 |
| 20260509084015 | 48 | 69 | 5.0 | 9.0 | 0.00 | 0.00 | 0.00 | 89 | 1014.8 |
| 20260509083514 | 48 | 71 | 6.0 | 9.0 | 0.00 | 0.00 | 0.00 | 89 | 1014.9 |
| 20260509083014 | 48 | 89 | 5.0 | 8.0 | 0.00 | 0.00 | 0.00 | 89 | 1014.7 |
| 20260509082512 | 48 | 59 | 5.0 | 8.0 | 0.00 | 0.00 | 0.00 | 89 | 1014.7 |
| 20260509082019 | 48 | 71 | 5.0 | 9.0 | 0.00 | 0.00 | 0.00 | 89 | 1014.7 |
| 20260509082012 | 48 | 75 | 5.0 | 9.0 | 0.00 | 0.00 | 0.00 | 89 | 1014.8 |
| 20260509081009 | 48 | 78 | 5.0 | 7.0 | 0.00 | 0.00 | 0.00 | 89 | 1014.7 |
| 20260509080507 | 48 | 71 | 5.0 | 7.0 | 0.00 | 0.00 | 0.00 | 89 | 1014.8 |
| 20260509080007 | 48 | 76 | 5.0 | 7.0 | 0.00 | 0.00 | 0.00 | 89 | 1014.9 |
| 20260509075504 | 48 | 71 | 4.0 | 7.0 | 0.00 | 0.00 | 0.00 | 89 | 1014.8 |
| 20260509075003 | 48 | 70 | 4.0 | 7.0 | 0.00 | 0.00 | 0.00 | 89 | 1014.7 |
| 20260509074001 | 49 | 77 | 4.0 | 6.0 | 0.00 | 0.00 | 0.00 | 89 | 1014.6 |
| 20260509073501 | 49 | 76 | 4.0 | 6.0 | 0.00 | 0.00 | 0.00 | 89 | 1014.6 |
| 20260509072959 | 49 | 71 | 4.0 | 6.0 | 0.00 | 0.00 | 0.00 | 89 | 1014.5 |
| 20260509072458 | 49 | 74 | 4.0 | 6.0 | 0.00 | 0.00 | 0.00 | 89 | 1014.7 |
| 20260509072230 | 49 | 66 | 4.0 | 6.0 | 0.00 | 0.00 | 0.00 | 88 | 1014.7 |
| 20260509071730 | 49 | 79 | 4.0 | 6.0 | 0.00 | 0.00 | 0.00 | 89 | 1014.7 |
| 20260509070958 | 49 | 62 | 4.0 | 6.0 | 0.00 | 0.00 | 0.00 | 88 | 1014.7 |
| 20260509070458 | 49 | 77 | 3.0 | 5.0 | 0.00 | 0.00 | 0.00 | 88 | 1014.6 |
| 20260509065958 | 49 | 70 | 3.0 | 5.0 | 0.00 | 0.00 | 0.00 | 88 | 1014.7 |
| 20260509065458 | 49 | 69 | 3.0 | 5.0 | 0.00 | 0.00 | 0.00 | 88 | 1014.7 |
| 20260509064454 | 49 | 70 | 3.0 | 5.0 | 0.00 | 0.00 | 0.00 | 87 | 1014.7 |
| 20260509063954 | 49 | 70 | 3.0 | 5.0 | 0.00 | 0.00 | 0.00 | 87 | 1014.8 |
| 20260509063452 | 49 | 78 | 3.0 | 4.0 | 0.00 | 0.00 | 0.00 | 87 | 1014.5 |
| 20260509062951 | 49 | 74 | 2.0 | 5.0 | 0.00 | 0.00 | 0.00 | 87 | 1014.5 |
| 20260509062450 | 49 | 74 | 2.0 | 5.0 | 0.00 | 0.01 | 0.00 | 87 | 1014.5 |
| 20260509061446 | 49 | 74 | 3.0 | 4.0 | 0.00 | 0.03 | 0.00 | 86 | 1014.1 |
| 20260509055444 | 50 | 77 | 3.0 | 4.0 | 0.00 | 0.09 | 0.00 | 85 | 1013.9 |
| 20260509055216 | 50 | 78 | 3.0 | 4.0 | 0.00 | 0.09 | 0.00 | 85 | 1013.9 |
| 20260509054445 | 50 | 78 | 2.0 | 4.0 | 0.00 | 0.11 | 0.00 | 84 | 1013.8 |
| 20260509053945 | 51 | 77 | 2.0 | 4.0 | 0.00 | 0.14 | 0.00 | 84 | 1013.7 |
| 20260509053444 | 51 | 77 | 1.0 | 3.0 | 0.00 | 0.17 | 0.00 | 84 | 1013.6 |
| 20260509052942 | 51 | 77 | 1.0 | 3.0 | 0.00 | 0.24 | 0.00 | 83 | 1013.4 |
| 20260509052439 | 51 | 77 | 2.0 | 4.0 | 0.00 | 0.28 | 0.00 | 83 | 1013.6 |
| 20260509051935 | 51 | 77 | 2.0 | 4.0 | 0.00 | 0.28 | 0.00 | 83 | 1013.6 |
| 20260509051433 | 51 | 77 | 2.0 | 4.0 | 0.00 | 0.28 | 0.00 | 83 | 1013.4 |
| 20260509050926 | 51 | 77 | 2.0 | 4.0 | 0.00 | 0.28 | 0.00 | 83 | 1013.0 |
| 20260509050427 | 51 | 78 | 3.0 | 4.0 | 0.00 | 0.28 | 0.00 | 82 | 1012.9 |
| 20260509045925 | 51 | 77 | 3.0 | 4.0 | 0.00 | 0.28 | 0.00 | 82 | 1012.9 |
| 20260509045422 | 52 | 74 | 3.0 | 5.0 | 0.00 | 0.28 | 0.00 | 82 | 1013.2 |
| 20260509044417 | 52 | 83 | 2.0 | 5.0 | 0.00 | 0.28 | 0.00 | 80 | 1013.0 |
| 20260509043916 | 53 | 51 | 0.0 | 4.0 | 0.00 | 0.30 | 0.00 | 80 | 1013.0 |
| 20260509042907 | 53 | 256 | 0.0 | 1.0 | 0.00 | 0.30 | 0.00 | 79 | 1013.5 |
| 20260509042354 | 53 | 256 | 0.0 | 2.0 | 0.00 | 0.30 | 0.00 | 79 | 1013.4 |
| 20260509042115 | 53 | 256 | 0.0 | 2.0 | 0.00 | 0.43 | 0.00 | 78 | 1013.4 |
| 20260509041341 | 54 | 256 | 0.0 | 0.0 | 0.00 | 0.43 | 0.00 | 78 | 1013.3 |
| 20260509040837 | 54 | 256 | 0.0 | 0.0 | 0.00 | 0.43 | 0.00 | 77 | 1013.2 |
| 20260509040323 | 54 | 256 | 0.0 | 0.0 | 0.00 | 0.43 | 0.00 | 76 | 1013.0 |
| 20260509035812 | 55 | 256 | 0.0 | 0.0 | 0.00 | 0.43 | 0.00 | 75 | 1012.8 |
| 20260509035253 | 55 | 256 | 0.0 | 0.0 | 0.00 | 0.43 | 0.00 | 74 | 1012.8 |
| 20260509034240 | 55 | 253 | 0.0 | 0.0 | 0.00 | 0.43 | 0.00 | 72 | 1012.6 |
| 20260509033724 | 55 | 254 | 0.0 | 0.0 | 0.00 | 0.43 | 0.00 | 72 | 1012.7 |
| 20260509033445 | 55 | 272 | 0.0 | 0.0 | 0.00 | 0.44 | 0.00 | 72 | 1012.6 |
| 20260509032201 | 55 | 239 | 0.0 | 0.0 | 0.00 | 0.47 | 0.00 | 74 | 1012.4 |
| 20260509031703 | 56 | 239 | 0.0 | 0.0 | 0.00 | 0.47 | 0.00 | 74 | 1012.2 |
| 20260509031146 | 56 | 239 | 0.0 | 0.0 | 0.00 | 0.47 | 0.00 | 74 | 1012.4 |
| 20260509030643 | 56 | 239 | 0.0 | 0.0 | 0.00 | 0.47 | 0.00 | 74 | 1012.2 |
| 20260509030412 | 56 | 239 | 0.0 | 0.0 | 0.00 | 0.47 | 0.00 | 73 | 1012.2 |
| 20260509025619 | 56 | 239 | 0.0 | 0.0 | 0.00 | 0.47 | 0.47 | 72 | 1012.2 |
| 20260509024601 | 56 | 239 | 0.0 | 0.0 | 0.00 | 0.47 | 0.47 | 71 | 1012.1 |
| 20260509024059 | 56 | 239 | 0.0 | 0.0 | 0.00 | 0.47 | 0.47 | 71 | 1012.1 |
| 20260509023829 | 57 | 239 | 0.0 | 0.0 | 0.00 | 0.47 | 0.47 | 71 | 1011.9 |
| 20260509023058 | 57 | 239 | 0.0 | 0.0 | 0.00 | 0.47 | 0.47 | 71 | 1011.9 |
| 20260509022559 | 57 | 212 | 0.0 | 0.0 | 0.00 | 0.47 | 0.47 | 71 | 1011.6 |
| 20260509022057 | 57 | 205 | 0.0 | 0.0 | 0.00 | 0.47 | 0.47 | 70 | 1011.5 |
| 20260509021556 | 57 | 202 | 0.0 | 0.0 | 0.00 | 0.47 | 0.47 | 70 | 1011.4 |
| 20260509021055 | 57 | 207 | 0.0 | 0.0 | 0.00 | 0.47 | 0.47 | 70 | 1011.5 |
| 20260509020553 | 58 | 212 | 0.0 | 0.0 | 0.00 | 0.47 | 0.47 | 70 | 1011.3 |
| 20260509020053 | 58 | 204 | 0.0 | 0.0 | 0.00 | 0.47 | 0.47 | 70 | 1011.3 |
| 20260509015552 | 58 | 210 | 0.0 | 0.0 | 0.00 | 0.47 | 0.47 | 70 | 1011.4 |
| 20260509015315 | 58 | 205 | 0.0 | 0.0 | 0.00 | 0.47 | 0.47 | 70 | 1011.3 |
| 20260509014546 | 59 | 209 | 0.0 | 0.0 | 0.00 | 0.47 | 0.47 | 69 | 1011.2 |
| 20260509014045 | 59 | 204 | 0.0 | 0.0 | 0.00 | 0.47 | 0.47 | 67 | 1011.1 |
| 20260509013544 | 60 | 204 | 0.0 | 0.0 | 0.00 | 0.47 | 0.47 | 65 | 1010.8 |
| 20260509013049 | 61 | 230 | 0.0 | 0.0 | 0.00 | 0.47 | 0.47 | 63 | 1010.6 |
| 20260509013042 | 61 | 221 | 0.0 | 0.0 | 0.00 | 0.47 | 0.47 | 63 | 1010.7 |
| 20260509012313 | 61 | 230 | 0.0 | 0.0 | 0.00 | 0.47 | 0.47 | 62 | 1010.6 |
| 20260509011538 | 62 | 230 | 0.0 | 0.0 | 0.00 | 0.47 | 0.47 | 61 | 1010.6 |
| 20260509011037 | 62 | 230 | 0.0 | 0.0 | 0.00 | 0.47 | 0.47 | 61 | 1010.7 |
| 20260509010533 | 62 | 230 | 0.0 | 0.0 | 0.00 | 0.47 | 0.47 | 61 | 1010.8 |
| 20260509010034 | 62 | 230 | 0.0 | 0.0 | 0.00 | 0.47 | 0.47 | 60 | 1010.7 |
| 20260509005533 | 62 | 230 | 0.0 | 0.0 | 0.00 | 0.47 | 0.47 | 60 | 1010.6 |
| 20260509005033 | 62 | 229 | 0.0 | 0.0 | 0.00 | 0.47 | 0.47 | 60 | 1010.6 |
| 20260509004534 | 62 | 229 | 0.0 | 0.0 | 0.00 | 0.47 | 0.47 | 60 | 1010.5 |
| 20260509004033 | 62 | 230 | 0.0 | 0.0 | 0.00 | 0.47 | 0.47 | 60 | 1010.5 |
| 20260509003526 | 62 | 230 | 0.0 | 0.0 | 0.00 | 0.47 | 0.47 | 60 | 1010.6 |
| 20260509003519 | 62 | 229 | 0.0 | 0.0 | 0.00 | 0.47 | 0.47 | 59 | 1010.5 |
| 20260509002012 | 63 | 233 | 0.0 | 0.0 | 0.00 | 0.47 | 0.47 | 59 | 1010.4 |
| 20260509001507 | 63 | 233 | 0.0 | 0.0 | 0.00 | 0.47 | 0.47 | 59 | 1010.4 |
| 20260509000957 | 63 | 232 | 0.0 | 0.0 | 0.00 | 0.47 | 0.47 | 58 | 1010.3 |
| 20260509000457 | 63 | 234 | 0.0 | 0.0 | 0.00 | 0.47 | 0.47 | 57 | 1010.3 |
| 20260508235956 | 63 | 233 | 0.0 | 0.0 | 0.00 | 0.47 | 0.47 | 57 | 1010.2 |
| 20260508235453 | 63 | 233 | 0.0 | 0.0 | 0.00 | 0.47 | 0.47 | 57 | 1010.3 |
| 20260508234950 | 63 | 233 | 0.0 | 0.0 | 0.00 | 0.47 | 0.47 | 57 | 1010.2 |
| 20260508234444 | 63 | 237 | 0.0 | 0.0 | 0.00 | 0.47 | 0.47 | 56 | 1010.1 |
| 20260508234208 | 63 | 236 | 0.0 | 0.0 | 0.00 | 0.47 | 0.47 | 56 | 1010.0 |
| 20260508233438 | 64 | 236 | 0.0 | 0.0 | 0.00 | 0.47 | 0.47 | 56 | 1010.1 |
| 20260508232932 | 64 | 231 | 0.0 | 0.0 | 0.00 | 0.47 | 0.47 | 56 | 1009.9 |
| 20260508232428 | 64 | 237 | 0.0 | 0.0 | 0.00 | 0.47 | 0.47 | 55 | 1009.9 |
| 20260508232149 | 64 | 249 | 0.0 | 0.0 | 0.00 | 0.47 | 0.47 | 54 | 1009.8 |
| 20260508231403 | 64 | 226 | 0.0 | 0.0 | 0.00 | 0.47 | 0.47 | 54 | 1009.7 |
| 20260508230852 | 64 | 265 | 0.0 | 0.0 | 0.00 | 0.47 | 0.47 | 54 | 1009.7 |
| 20260508230342 | 64 | 233 | 0.0 | 0.0 | 0.00 | 0.47 | 0.47 | 54 | 1009.4 |
| 20260508225832 | 64 | 243 | 0.0 | 0.0 | 0.00 | 0.47 | 0.47 | 54 | 1009.2 |
| 20260508225554 | 64 | 235 | 0.0 | 0.0 | 0.00 | 0.47 | 0.47 | 54 | 1009.2 |
| 20260508224813 | 65 | 223 | 0.0 | 0.0 | 0.00 | 0.47 | 0.47 | 54 | 1009.3 |
| 20260508224303 | 65 | 219 | 0.0 | 0.0 | 0.00 | 0.47 | 0.47 | 53 | 1009.2 |
| 20260508223752 | 65 | 229 | 0.0 | 0.0 | 0.00 | 0.47 | 0.47 | 53 | 1009.1 |
| 20260508223242 | 65 | 230 | 0.0 | 0.0 | 0.00 | 0.47 | 0.47 | 53 | 1009.1 |
| 20260508222732 | 65 | 227 | 0.0 | 0.0 | 0.00 | 0.47 | 0.47 | 53 | 1008.9 |
| 20260508222232 | 65 | 234 | 0.0 | 0.0 | 0.00 | 0.47 | 0.47 | 53 | 1008.9 |
| 20260508221719 | 65 | 234 | 0.0 | 0.0 | 0.00 | 0.47 | 0.47 | 53 | 1008.7 |
| 20260508221207 | 65 | 234 | 0.0 | 0.0 | 0.00 | 0.47 | 0.47 | 52 | 1008.6 |
| 20260508220649 | 65 | 234 | 0.0 | 0.0 | 0.00 | 0.47 | 0.47 | 52 | 1008.5 |
| 20260508220408 | 65 | 234 | 0.0 | 0.0 | 0.00 | 0.47 | 0.47 | 52 | 1008.5 |
| 20260508215113 | 65 | 234 | 0.0 | 0.0 | 0.00 | 0.47 | 0.47 | 52 | 1008.4 |
| 20260508214606 | 65 | 234 | 0.0 | 0.0 | 0.00 | 0.47 | 0.47 | 52 | 1008.3 |
| 20260508214055 | 65 | 234 | 0.0 | 0.0 | 0.00 | 0.47 | 0.47 | 51 | 1008.2 |
| 20260508213543 | 65 | 234 | 0.0 | 0.0 | 0.00 | 0.47 | 0.47 | 51 | 1008.0 |
| 20260508213031 | 65 | 234 | 0.0 | 0.0 | 0.00 | 0.47 | 0.47 | 50 | 1007.9 |
| 20260508212522 | 65 | 233 | 0.0 | 0.0 | 0.00 | 0.47 | 0.47 | 50 | 1007.8 |